Find Starlink 32533

NORAD ID: 61706 Int'l Des: 2024-195 Owner: SPXS Country: US Constellation: starlink operational
LEOCIRCULAR

Current View

Loading 3D Globe...

About Starlink 32533

Starlink 32533 (NORAD 61706) is a starlink constellation satellite (v2 mini) launched Oct 30, 2024 by SPXS of US. It operates in LEO, CIRCULAR orbit with a mass of 730.00 kg.

Upcoming Passes

Passes for default location (London). Set your location on the main map for personalized predictions.

Altitude History

Loading altitude history...

Two-Line Element Set

1 61706U 24195V 26228.05458312 -.00000477 00000-0 -29697-5 0 9997
2 61706 53.1589 131.3885 0001519 82.1723 277.9452 15.34379507101632
Epoch: Aug 16, 2026 • Age: 10 hours

Current Status

Altitude 468.2 km
Apogee / Perigee N/A
Velocity 7.64 km/s
Sub-Earth Point 52.79°N, 99.14°E
Launch Date Oct 30, 2024
Age 1.7 years
Type internet

Technical Details

Classification Payload
Mass 730.00 kg
Dry Mass 700.00 kg
Total Mass 730.00 kg
Length 0.30 m
Diameter 4.10 m
Span 29.00 m
Shape Box + pan
Manufacturer SPXS
Bus Type Starlink V2M
Phase Status In Orbit
Owner/State SPXS/US

Most Searched